DUCHIFAT-1
1 40021U 14033M 17046.79900200 .00000425 00000-0 50355-4 0 9996
2 40021 97.9238 319.7668 0012902 347.6046 12.4852 14.89720108144529
NANOSATCBR1
1 40024U 14033Q 17047.21741174 .00000357 00000-0 43871-4 0 9999
2 40024 97.9204 319.2570 0012172 347.3504 12.7406 14.89069681144549
EO-79
1 40025U 14033R 17047.20056296 .00000253 00000-0 33396-4 0 9999
2 40025 97.9191 318.4541 0012374 349.6694 10.4266 14.88301344144490
DTUSAT-2
1 40030U 14033W 17046.97353676 .00000265 00000-0 35014-4 0 9992
2 40030 97.9161 317.4609 0011701 344.7676 15.3186 14.87927104144421
EO-80
1 40032U 14033Y 17047.21217756 .00000264 00000-0 34985-4 0 9995
2 40032 97.9168 317.7066 0011643 344.4417 15.6440 14.87861557144453
ANTELSAT
1 40034U 14033AA 17047.21856636 .00000206 00000-0 38674-4 0 9998
2 40034 97.8761 294.7809 0058430 323.0756 36.6436 14.73607296143119
VELOX-1
1 40057U 14034E 17047.85151765 .00000321 00000-0 53174-4 0 9995
2 40057 98.1871 146.3032 0012451 85.8434 274.4194 14.77000330141996
DAURIA DX 1
1 40071U 14037C 17047.86904878 .00000135 00000-0 24868-4 0 9997
2 40071 98.3297 154.2395 0009886 80.2887 279.9451 14.80959136141161
UKUBE-1
1 40074U 14037F 17047.89188819 .00000336 00000-0 48120-4 0 9992
2 40074 98.3367 157.5061 0005888 83.1942 276.9938 14.83374763141347
HODOYOSHI-1
1 40299U 14070B 17047.82661603 .00000667 00000-0 32238-4 0 9998
2 40299 97.4114 132.3761 0014117 147.7773 328.8283 15.21985620126636
CHUBUSAT-1
1 40300U 14070C 17047.87272995 .00000825 00000-0 40620-4 0 9998
2 40300 97.4047 129.9449 0021253 158.2181 294.1003 15.20559124126504
QSAT-EOS
1 40301U 14070D 17047.89724855 .00001565 00000-0 69741-4 0 9995
2 40301 97.3985 129.7243 0028665 156.7086 335.5794 15.22564202126520
FIREBIRD FU3
1 40377U 15003B 17046.94385686 .00001384 00000-0 63717-4 0 9991
2 40377 099.1117 206.8587 0139023 044.1798 317.0432 15.14563750112649
FIREBIRD FU4
1 40378U 15003C 17047.86265300 .00001623 00000-0 73757-4 0 9995
2 40378 99.1121 207.9868 0139174 41.0679 320.0925 15.14589465112798
GRIFEX
1 40379U 15003D 17047.85933217 .00001274 00000-0 61923-4 0 9998
2 40379 99.1128 206.2598 0144561 47.1737 314.1532 15.12344398112695
NO-84
1 40654U 15025D 17047.37356102 .00009111 00000-0 18270-3 0 03647
2 40654 054.9979 055.6813 0187737 323.3943 035.4431 15.30829937061376
NO-83
1 40655U 15025E 17047.38001104 .00017022 00000-0 28550-3 0 04023
2 40655 054.9845 038.5930 0161323 333.1393 026.1373 15.38711998061591
DEORBITSAIL
1 40719U 15032E 17047.51894669 .00000411 00000-0 67175-4 0 9995
2 40719 97.9941 302.6997 0016605 167.0083 193.1557 14.75906185 86529
NUDT-PHONESAT
1 40900U 15049B 17047.75517503 .00002560 00000-0 12677-3 0 9993
2 40900 97.4452 57.4424 0012700 287.9178 72.0671 15.18623262 78176
XW-2A
1 40903U 15049E 17047.78876450 .00002355 00000-0 65019-4 0 9999
2 40903 97.4324 71.9910 0014611 345.1005 14.9808 15.38032394 79133
XW-2C
1 40906U 15049H 17047.85297891 .00000802 00000-0 47367-4 0 9997
2 40906 97.4553 55.7712 0013726 271.6713 88.2947 15.14257513 78026
XW-2D
1 40907U 15049J 17047.84386848 .00000867 00000-0 50783-4 0 9995
2 40907 97.4522 55.5569 0013086 269.7433 90.2299 15.14342302 78021
LILACSAT-2
1 40908U 15049K 17047.85711481 .00000431 00000-0 28096-4 0 9991
2 40908 97.4623 55.4506 0014635 266.4346 93.5211 15.12948752 77974
XW-2F
1 40910U 15049M 17047.84502405 .00001256 00000-0 70497-4 0 9995
2 40910 97.4546 56.0577 0013975 267.6818 92.2814 15.15093234 77939
XW-2B
1 40911U 15049N 17047.84722140 .00000841 00000-0 49407-4 0 9992
2 40911 97.4567 55.8734 0012986 270.0613 89.9131 15.14311165 77926
DCBB
1 40912U 15049P 17047.93097479 .00001297 00000-0 68636-4 0 9994
2 40912 97.4522 57.6343 0014053 259.6689 162.2001 15.17144391 78051
TW-1C
1 40926U 15051B 17047.86912302 .00004924 00000-0 12276-3 0 9993
2 40926 97.2455 88.4247 0010811 241.9882 237.3947 15.40626084 78380
TW-1A
1 40928U 15051D 17047.86744506 .00002343 00000-0 71122-4 0 9993
2 40928 97.2416 85.8264 0011208 272.1484 209.4802 15.35045468 78233
IO-86
1 40931U 15052B 17047.67283257 .00000678 00000-0 53154-5 0 9993
2 40931 6.0017 12.0316 0013855 339.5920 20.3745 14.76510895 75121
GomX-3
1 40949U 98067HA 16292.18357804 .08527750 12374-4 77882-3 0 9992
2 40949 51.6055 106.7696 0006699 286.1344 73.8944 16.38002265 59645
LQSat
1 40958U 15057A 17047.87307280 .00000027 00000-0 12071-4 0 9992
2 40958 97.9894 125.2333 0019614 90.7579 269.5863 14.72942702 73402
AO-85
1 40967U 15058D 17047.10786537 .00000189 00000-0 41066-4 0 04018
2 40967 064.7742 226.1193 0175925 122.7752 239.0441 14.75314216059255
ATHENOXAT-1
1 41168U 15077C 17047.88547712 .00002110 00000-0 83297-4 0 9998
2 41168 14.9912 327.9992 0012339 148.5593 278.2167 15.11097883 64817
ChubuSat-2
1 41338U 16012B 17046.68405004 .00000426 00000-0 26808-4 0 9994
2 41338 31.0028 163.8800 0014117 297.0503 62.8691 14.99642423 54736
ChubuSat-3
1 41339U 16012C 17047.49434763 .00000347 00000-0 20489-4 0 9990
2 41339 31.0108 158.0821 0013948 311.4854 48.4585 14.99855636 54831
Horyu-4
1 41340U 16012D 17047.51775823 .00000644 00000-0 43146-4 0 9995
2 41340 31.0049 156.1919 0014420 318.7138 41.2407 15.00434799 54879
OUFTI-1
1 41458U 16025C 17046.93543552 .00002517 00000-0 14116-3 0 9991
2 41458 098.1991 077.5168 0173458 335.0145 024.3004 15.02556229044372
e-st@r-II
1 41459U 16025D 17046.87878485 .00001930 00000-0 10899-3 0 9993
2 41459 98.1994 77.4382 0175455 335.4092 23.8839 15.02437791 44357
AAUSAT4
1 41460U 16025E 17047.87103620 .00002692 00000-0 15075-3 0 9995
2 41460 98.1921 78.5386 0168802 331.1176 28.0793 15.03110213 44511
MinXSS
1 41474U 98067HU 17047.76342664 .00040375 00000-0 23613-3 0 9994
2 41474 51.6439 257.3143 0000761 282.7834 77.3082 15.77935454 43254
CADRE
1 41475U 98067HV 17003.74787607 .12518598 12537-4 55989-3 0 9998
2 41475 51.6110 110.0165 0004040 312.3134 47.7551 16.43344525 36494
NODES 1
1 41477U 98067HX 17047.18476099 .00025126 00000-0 21303-3 0 9994
2 41477 51.6342 266.1334 0000742 312.6120 47.4814 15.69511159 42994
NODES 2
1 41478U 98067HY 17047.83719880 .00028195 00000-0 24001-3 0 9992
2 41478 51.6347 262.9887 0000695 319.0337 41.0608 15.69343726 43091
LO-87
1 41557U 16033B 17047.75088216 .00001392 00000-0 55962-4 0 9997
2 41557 97.4731 127.2572 0016040 74.6210 285.6799 15.26535292 40057
NuSat2
1 41558U 16033C 17047.77411458 .00001458 00000-0 58720-4 0 9996
2 41558 97.4757 127.3139 0015490 73.3385 286.9552 15.26410429 40058
Lapan A3
1 41603U 16040E 17047.85318791 .00000089 00000-0 74637-5 0 9995
2 41603 97.4777 111.1711 0014762 128.9664 356.0941 15.19260610 36385
Swayam
1 41607U 16040J 17047.17205923 .00001333 00000-0 64577-4 0 9990
2 41607 97.4768 110.5869 0015797 135.4334 224.8174 15.20198757 36218
Pratham
1 41783U 16059A 17047.84228482 .00000053 00000-0 19873-4 0 9991
2 41783 98.1837 110.3648 0033859 176.0054 184.1425 14.62804651 21000
AlSat 1N
1 41789U 16059G 17047.86163925 .00000084 00000-0 25183-4 0 9994
2 41789 98.1830 110.6541 0028703 170.2137 189.9613 14.64007543 21003
ScatSat
1 41790U 16059H 17047.09710886 .00000013 00000-0 14080-4 0 9991
2 41790 98.0830 102.1623 0011929 154.0999 206.0796 14.50093774 20715
TY-1
1 41844U 16066D 17047.75010153 -.00000070 00000-0 00000 0 0 9998
2 41844 97.4065 56.7490 0014761 305.9547 101.5091 15.21680533 15026
CAS-2T
1 41845U 16066E 17047.71913494 -.00000076 00000-0 00000 0 0 9991
2 41845 98.7798 60.4456 0365803 245.6950 110.5630 14.37700018 14184
